Tiempo cada hora Abertura

Hoy, 29 Octubre, Jueves

Tiempo Temperatura Precipitaciones Viento Presión Humedad
00:00 +13°C° 0 mm 0 mps 735 mmHg 91%
01:00 +14°C° 0 mm 1 mps 735 mmHg 92%
02:00 +13°C° 0 mm 1 mps 735 mmHg 92%
03:00 +13°C° 0 mm 1 mps 735 mmHg 92%
04:00 +13°C° 0 mm 1 mps 735 mmHg 92%
05:00 +13°C° 0 mm 1 mps 735 mmHg 92%
06:00 +12°C° 0 mm 1 mps 735 mmHg 92%
07:00 +14°C° 0 mm 1 mps 736 mmHg 87%
08:00 +15°C° 0 mm 1 mps 736 mmHg 82%
09:00 +16°C° 0 mm 1 mps 736 mmHg 77%
10:00 +19°C° 0 mm 1 mps 736 mmHg 69%
11:00 +20°C° 0 mm 1 mps 736 mmHg 61%
12:00 +21°C° 0 mm 2 mps 736 mmHg 53%
13:00 +22°C° 0 mm 1 mps 736 mmHg 50%
14:00 +23°C° 0 mm 1 mps 735 mmHg 46%
15:00 +23°C° 0 mm 1 mps 735 mmHg 43%
16:00 +22°C° 0 mm 1 mps 735 mmHg 49%
17:00 +20°C° 0 mm 1 mps 735 mmHg 55%
18:00 +18°C° 0 mm 1 mps 735 mmHg 61%
19:00 +18°C° 0 mm 1 mps 735 mmHg 64%
20:00 +16°C° 0 mm 1 mps 735 mmHg 67%
21:00 +15°C° 0 mm 1 mps 735 mmHg 70%
22:00 +15°C° 0 mm 1 mps 735 mmHg 71%
23:00 +15°C° 0 mm 1 mps 735 mmHg 71%

Mañana, 30 Octubre, Viernes

Tiempo Temperatura Precipitaciones Viento Presión Humedad
00:00 +14°C° 0 mm 1 mps 735 mmHg 72%
01:00 +14°C° 0 mm 1 mps 735 mmHg 72%
02:00 +14°C° 0 mm 1 mps 735 mmHg 72%
03:00 +14°C° 0 mm 1 mps 735 mmHg 73%
04:00 +13°C° 0 mm 1 mps 735 mmHg 73%
05:00 +13°C° 0 mm 1 mps 735 mmHg 74%
06:00 +13°C° 0 mm 1 mps 735 mmHg 74%
07:00 +14°C° 0 mm 1 mps 735 mmHg 69%
08:00 +16°C° 0 mm 1 mps 735 mmHg 64%
09:00 +18°C° 0 mm 1 mps 735 mmHg 59%
10:00 +20°C° 0 mm 1 mps 735 mmHg 53%
11:00 +22°C° 0 mm 1 mps 735 mmHg 47%
12:00 +24°C° 0 mm 1 mps 735 mmHg 41%
13:00 +25°C° 0 mm 1 mps 735 mmHg 40%
14:00 +25°C° 0 mm 1 mps 734 mmHg 39%
15:00 +25°C° 0 mm 1 mps 734 mmHg 37%
16:00 +24°C° 0 mm 1 mps 734 mmHg 43%
17:00 +22°C° 0 mm 1 mps 734 mmHg 48%
18:00 +20°C° 0 mm 1 mps 733 mmHg 54%
19:00 +20°C° 0 mm 1 mps 734 mmHg 55%
20:00 +19°C° 0 mm 1 mps 734 mmHg 57%
21:00 +19°C° 0 mm 1 mps 734 mmHg 59%
22:00 +18°C° 0 mm 1 mps 734 mmHg 60%
23:00 +18°C° 0 mm 1 mps 734 mmHg 61%

Pasado mañana, 31 Octubre, Sábado

Tiempo Temperatura Precipitaciones Viento Presión Humedad
00:00 +16°C° 0 mm 1 mps 734 mmHg 62%
01:00 +16°C° 0 mm 1 mps 734 mmHg 63%
02:00 +14°C° 0 mm 0 mps 734 mmHg 64%
03:00 +14°C° 0 mm 0 mps 733 mmHg 65%
04:00 +14°C° 0 mm 0 mps 734 mmHg 66%
05:00 +14°C° 0 mm 0 mps 734 mmHg 67%
06:00 +13°C° 0 mm 0 mps 734 mmHg 68%
07:00 +14°C° 0 mm 0 mps 734 mmHg 65%
08:00 +16°C° 0 mm 0 mps 735 mmHg 61%
09:00 +17°C° 0 mm 0 mps 735 mmHg 58%
10:00 +19°C° 0 mm 0 mps 735 mmHg 53%
11:00 +20°C° 0 mm 0 mps 735 mmHg 48%
12:00 +22°C° 0 mm 0 mps 735 mmHg 43%
13:00 +22°C° 0 mm 0 mps 734 mmHg 41%
14:00 +25°C° 0 mm 1 mps 734 mmHg 40%
15:00 +25°C° 0 mm 1 mps 734 mmHg 38%
16:00 +23°C° 0 mm 1 mps 734 mmHg 44%
17:00 +21°C° 0 mm 1 mps 734 mmHg 49%
18:00 +20°C° 0 mm 1 mps 734 mmHg 55%
19:00 +19°C° 0 mm 1 mps 734 mmHg 57%
20:00 +19°C° 0 mm 1 mps 734 mmHg 60%
21:00 +18°C° 0 mm 1 mps 734 mmHg 62%
22:00 +18°C° 0 mm 1 mps 734 mmHg 63%
23:00 +16°C° 0 mm 1 mps 734 mmHg 65%

1 Noviembre, Domingo

Tiempo Temperatura Precipitaciones Viento Presión Humedad
00:00 +16°C° 0 mm 1 mps 734 mmHg 66%
01:00 +15°C° 0 mm 0 mps 734 mmHg 68%
02:00 +14°C° 0 mm 0 mps 734 mmHg 70%
03:00 +14°C° 0 mm 0 mps 734 mmHg 71%
04:00 +14°C° 0 mm 0 mps 734 mmHg 73%
05:00 +14°C° 0 mm 0 mps 734 mmHg 74%
06:00 +13°C° 0 mm 0 mps 734 mmHg 76%
07:00 +15°C° 0 mm 0 mps 734 mmHg 71%
08:00 +16°C° 0 mm 0 mps 734 mmHg 67%
09:00 +19°C° 0 mm 1 mps 734 mmHg 63%
10:00 +21°C° 0 mm 1 mps 734 mmHg 58%
11:00 +22°C° 0 mm 1 mps 734 mmHg 53%
12:00 +24°C° 0 mm 1 mps 734 mmHg 48%
13:00 +24°C° 0 mm 1 mps 734 mmHg 46%
14:00 +24°C° 0 mm 1 mps 733 mmHg 45%
15:00 +25°C° 0 mm 1 mps 733 mmHg 44%
16:00 +23°C° 0 mm 1 mps 733 mmHg 49%
17:00 +21°C° 0 mm 1 mps 732 mmHg 54%
18:00 +18°C° 0 mm 0 mps 732 mmHg 60%
19:00 +18°C° 0 mm 0 mps 732 mmHg 61%
20:00 +17°C° 0 mm 0 mps 732 mmHg 63%
21:00 +17°C° 0 mm 0 mps 732 mmHg 65%
22:00 +16°C° 0 mm 0 mps 732 mmHg 67%
23:00 +16°C° 0 mm 0 mps 732 mmHg 68%

2 Noviembre, Lunes

Tiempo Temperatura Precipitaciones Viento Presión Humedad
00:00 +15°C° 0 mm 0 mps 732 mmHg 70%
01:00 +15°C° 0 mm 0 mps 731 mmHg 71%
02:00 +15°C° 0 mm 0 mps 731 mmHg 72%
03:00 +14°C° 0 mm 0 mps 731 mmHg 73%
04:00 +14°C° 0 mm 0 mps 731 mmHg 74%
05:00 +14°C° 0 mm 0 mps 731 mmHg 75%
06:00 +14°C° 0 mm 0 mps 731 mmHg 76%
07:00 +15°C° 0 mm 0 mps 731 mmHg 72%
08:00 +16°C° 0 mm 0 mps 731 mmHg 67%
09:00 +17°C° 0 mm 0 mps 731 mmHg 63%
10:00 +21°C° 0 mm 1 mps 731 mmHg 59%
11:00 +22°C° 0 mm 1 mps 731 mmHg 54%
12:00 +23°C° 0 mm 1 mps 731 mmHg 50%
13:00 +23°C° 0 mm 2 mps 730 mmHg 49%
14:00 +23°C° 0 mm 2 mps 730 mmHg 49%
15:00 +24°C° 0 mm 2 mps 730 mmHg 48%
16:00 +21°C° 0 mm 2 mps 730 mmHg 53%
17:00 +20°C° 0 mm 2 mps 729 mmHg 58%
18:00 +20°C° 0 mm 1 mps 729 mmHg 63%
19:00 +19°C° 0 mm 1 mps 730 mmHg 67%
20:00 +19°C° 0 mm 1 mps 730 mmHg 71%
21:00 +18°C° 0 mm 1 mps 730 mmHg 75%
22:00 +18°C° 0.2 mm 1 mps 730 mmHg 79%
23:00 +17°C° 0.2 mm 2 mps 730 mmHg 84%

3 Noviembre, Martes

Tiempo Temperatura Precipitaciones Viento Presión Humedad
00:00 +16°C° 0.2 mm 2 mps 730 mmHg 89%
01:00 +16°C° 0.5 mm 2 mps 730 mmHg 88%
02:00 +15°C° 0.5 mm 2 mps 730 mmHg 88%
03:00 +13°C° 0.5 mm 3 mps 730 mmHg 88%
04:00 +12°C° 0 mm 3 mps 730 mmHg 87%
05:00 +11°C° 0 mm 3 mps 730 mmHg 85%
06:00 +10°C° 0 mm 2 mps 730 mmHg 84%
07:00 +10°C° 0 mm 3 mps 730 mmHg 77%
08:00 +11°C° 0 mm 3 mps 731 mmHg 71%
09:00 +11°C° 0 mm 4 mps 731 mmHg 64%
10:00 +12°C° 0 mm 4 mps 731 mmHg 59%
11:00 +14°C° 0 mm 5 mps 731 mmHg 55%
12:00 +15°C° 0 mm 5 mps 731 mmHg 50%
13:00 +15°C° 0 mm 5 mps 731 mmHg 48%
14:00 +15°C° 0 mm 6 mps 730 mmHg 46%
15:00 +15°C° 0 mm 6 mps 730 mmHg 44%
16:00 +14°C° 0 mm 5 mps 731 mmHg 47%
17:00 +13°C° 0 mm 5 mps 731 mmHg 51%
18:00 +11°C° 0 mm 4 mps 731 mmHg 54%
19:00 +11°C° 0 mm 4 mps 731 mmHg 56%
20:00 +10°C° 0 mm 4 mps 731 mmHg 57%
21:00 +10°C° 0 mm 4 mps 731 mmHg 59%
22:00 +9°C° 0 mm 3 mps 731 mmHg 62%
23:00 +8°C° 0 mm 2 mps 731 mmHg 65%
Mostrar más

Necesitamos Su Consentimiento

Meteoprog y nuestros Proveedores de Servicios pueden almacenar y acceder a sus datos personales como cookies, identificadores de dispositivo u otras tecnologías similares de su dispositivo y procesar dichos datos para personalizar contenido y anuncios, además de ofrecer funciones de redes sociales y analizar el tráfico.

  • Almacenar y/o acceder a información en su dispositivo

    Se puede almacenar o acceder a cookies, identificadores de dispositivo u otra información de su dispositivo para los fines anteriormente indicados.

  • Anuncios y contenido personalizados, medición de anuncios y contenido, percepciones del público, y desarrollo de productos

    Los anuncios y el contenido pueden personalizarse en base a su perfil. Se pueden añadir más datos para personalizar mejor los anuncios y contenidos. Se puede medir el rendimiento de los anuncios y contenidos. Se puede obtener la percepción sobre el público que ha visto los anuncios y contenidos. Dichos datos pueden usarse para desarrollar o mejorar la experiencia del usuario, sistemas y software.

Al hacer clic en ‘Estoy De Acuerdo’ usted permitirá el uso de las cookies, identificadores de dispositivo, balizas web u otras tecnologías similares indicadas. Su configuración puede cambiarse desde el navegador de su dispositivo.

Para ciertos fines, los intereses legítimos pueden ser considerados por encima del consentimiento. Puede leer más sobre ello en nuestra Política de Privacidad y Cookies.